Location: Bamazo
(6.7448°N, 10.8189°W)
Time: 00:27:15
(UTC+00:00)

Cosmos 2034 Rocket - Pass Details

Date: 18 September 2020
Orbit: 957 x 1002 km, 82.9° (Epoch: 21 October)

Event Time Altitude Azimuth Distance (km) Brightness Sun altitude
Rises 20:26:40 0° 190° (S) 3,707 7.1 -27.0°
Reaches altitude 10° 20:29:13 10° 193° (SSW) 2,761 6.4 -27.6°
Maximum altitude 20:35:29 63° 273° (W) 1,105 4.4 -29.2°
Drops below altitude 10° 20:41:46 10° 354° (N) 2,763 6.5 -30.7°
Sets 20:44:19 0° 357° (N) 3,710 7.1 -31.3°
